Starlink 32621

operational
NORAD ID: 62303 Int'l Des: 2024-239 Owner: SPXS Country: US Constellation: starlink
LEOCIRCULAR

Starlink 32621について

説明を読み込み中...

リアルタイム位置

3D地球を読み込み中...

次回通過

高度履歴

Altitude vs Time

uPlot chart will show altitude changes over time

軌道要素

1 62303U 24239C 25306.50267072 .00041586 00000-0 14079-2 0 9996
2 62303 53.1614 51.7230 0001339 80.8703 279.2449 15.30209855 50095
Epoch: Nov 2, 2025 • Age: 30 hours

現在のステータス

高度 476.0 km
速度 7.63 km/s
衛星直下点 30.15°N, 118.1°E
打ち上げ日 Dec 13, 2024
運用期間 0.8 years
タイプ internet

技術仕様

分類 Payload
質量 730.00 kg
乾燥質量 700.00 kg
総質量 730.00 kg
長さ 0.30 m
直径 4.10 m
スパン 29.00 m
形状 Box + pan
製造者 SPXS
バスタイプ Starlink V2M
フェーズステータス In Orbit
所有者/国 SPXS/US

大規模コンステレーション

Loading constellations...